Vertical_Velocity
-1 -3 -3 -2 -0 -0 0 -1 -2 -4 -3 -7 -6 -2 -4 -1 -3 -1 2 2 -5 4 -1 -3 -3 3 -7
-2 -0 4 2 -1 -0 2 -2 0 -5 2 -3 0 -4 -0 -0 -1 -0 2 -3 -8 -4 -7 2 -3 3 -1
4 2 -2 0 -2 0 -3 0 4 2 1 -0 -0 -1 3 4 1 1 -4 -1 -2 -2 4 -0 -3 2 1
-3 1 6 1 -3 0 -0 -2 -2 -1 -0 -1 -6 1 -1 2 2 -5 -2 7 2 0 -2 -3 -3 -1 -1
-4 0 -1 0 3 1 1 -6 -5 1 -4 4 -2 1 1 3 -1 0 -0 -0 6 0 -1 -0 -0 -0 -1
5 -0 -1 3 3 -6 -0 1 -4 -3 1 -5 1 -1 4 0 1 -1 -13 -3 -6 3 1 -0 -1 -1 -1
-3 2 -1 -1 -1 -2 2 4 -2 -6 1 2 -2 -4 1 3 6 -1 7 2 -7 2 -3 -2 -2 1 1
2 -4 -2 0 1 1 -5 -2 -5 2 4 8 4 2 -4 -0 1 -2 -6 2 -1 0 0 -3 -5 2 2
0 -0 1 -1 5 -1 -1 1 -2 -6 2 1 -8 -2 -9 -1 -4 13 -1 -1 2 1 -2 -3 -2 2 -0
-4 -6 -6 -2 -3 -0 2 -2 2 -1 -5 -5 -2 4 -2 -12 -11 -6 1 2 2 1 -2 -4 -0 -2 2
2 3 -1 0 -1 -2 1 -0 1 -9 1 0 -0 3 -1 -1 -5 -5 5 -0 -2 -0 -4 -3 1 4 2
-2 -4 -0 6 -4 -7 -3 4 3 7 -6 4 -7 12 2 -10 2 -5 2 0 -2 2 -3 -2 2 1 2
-1 2 -2 1 -4 -7 1 9 2 -9 -2 -9 -11 6 -5 4 -7 1 2 -4 -0 2 -3 -2 -1 0 2
2 1 -1 -4 -4 -3 1 5 2 -12 -2 -2 5 -4 3 1 -6 3 -0 -4 0 -1 -3 -1 0 -0 1
0 -5 -6 3 0 7 -5 3 3 0 -2 -3 3 -2 -1 0 -1 -2 1 -3 0 -0 -1 -1 1 2 -0
-1 3 -6 7 -6 -5 -0 -4 -9 8 1 -2 2 -6 2 -3 1 -0 -0 -1 -2 0 0 1 2 -2 0
10 -9 8 1 -12 -0 3 -5 1 -2 -2 -2 -2 -4 -0 1 3 2 -2 -4 0 -0 -2 -3 2 -3 0
Height
3140 3139 3137 3136 3133 3131 3129 3126 3125 3124 3123 3121 3119 3118 3116 3114 3113 3111 3110 3110 3110 3107 3106 3107 3107 3105 3104
3133 3132 3131 3129 3127 3125 3122 3121 3119 3117 3115 3113 3110 3108 3106 3104 3104 3102 3102 3101 3102 3102 3103 3102 3101 3099 3099
3125 3124 3123 3122 3120 3118 3116 3114 3112 3109 3107 3105 3102 3100 3098 3097 3096 3095 3096 3097 3096 3096 3095 3095 3094 3094 3093
3120 3118 3116 3113 3111 3110 3109 3106 3103 3101 3098 3095 3093 3090 3088 3087 3088 3089 3090 3089 3091 3089 3089 3089 3089 3088 3087
3111 3110 3108 3106 3103 3101 3099 3096 3095 3092 3091 3087 3084 3081 3078 3077 3078 3079 3079 3083 3084 3084 3083 3083 3083 3083 3082
3102 3102 3100 3097 3095 3091 3089 3087 3088 3084 3082 3079 3076 3073 3071 3071 3073 3073 3073 3074 3075 3077 3077 3077 3077 3077 3077
3096 3094 3093 3090 3088 3085 3082 3079 3078 3075 3072 3070 3066 3064 3063 3063 3064 3066 3065 3067 3068 3069 3070 3071 3070 3071 3071
3088 3085 3083 3081 3079 3078 3075 3073 3070 3066 3063 3063 3060 3056 3056 3058 3059 3058 3062 3061 3061 3062 3063 3064 3064 3064 3065
3080 3078 3076 3075 3072 3070 3069 3067 3064 3061 3057 3053 3050 3047 3047 3049 3051 3052 3049 3055 3054 3055 3055 3056 3056 3057 3059
3072 3071 3070 3069 3066 3065 3061 3059 3057 3054 3053 3049 3045 3040 3040 3039 3043 3044 3045 3046 3047 3047 3047 3047 3049 3051 3053
3065 3062 3062 3060 3058 3058 3056 3053 3051 3048 3047 3044 3043 3037 3036 3035 3035 3037 3038 3038 3039 3039 3039 3041 3043 3046 3047
3056 3055 3055 3052 3050 3051 3049 3047 3045 3042 3040 3038 3035 3034 3032 3031 3030 3029 3029 3030 3032 3033 3034 3036 3038 3041 3043
3047 3047 3045 3044 3044 3043 3040 3038 3038 3036 3035 3032 3031 3030 3030 3026 3026 3026 3025 3025 3027 3028 3029 3031 3033 3036 3037
3039 3039 3037 3037 3036 3035 3034 3035 3030 3032 3030 3026 3026 3024 3023 3023 3021 3021 3021 3021 3022 3023 3024 3027 3029 3031 3033
3031 3030 3029 3029 3026 3026 3027 3027 3026 3024 3024 3020 3020 3018 3018 3017 3016 3016 3015 3016 3017 3017 3019 3022 3024 3025 3026
3023 3021 3020 3017 3018 3021 3017 3020 3019 3020 3018 3016 3012 3012 3012 3011 3012 3010 3010 3011 3013 3013 3015 3016 3018 3018 3019
3013 3012 3010 3010 3009 3009 3012 3011 3012 3011 3010 3010 3007 3006 3005 3006 3007 3005 3005 3005 3007 3008 3010 3011 3012 3011 3013